Location: ?????
(55.6500°N, 37.2500°E)
Time: 11:42:28
(UTC+00:00)

Meteor 1-18 Rocket - Pass Details

Date: 19 May 2025
Orbit: 836 x 907 km, 81.2° (Epoch: 13 June)

Event Time Altitude Azimuth Distance (km) Brightness Sun altitude
Exits shadow 21:32:07 20° 194° (SSW) 1,920 5.4 -14.4°
Maximum altitude 21:36:16 88° 281° (WNW) 902 4.3 -14.4°
Drops below altitude 10° 21:42:13 10° 14° (NNE) 2,594 8.1 -14.3°
Sets 21:44:42 0° 15° (NNE) 3,544 9.2 -14.3°
